Voltar ao catálogo

FENGYUN 1C DEB

LostPO
NORAD 36172·DEBRIS·🇨🇳 China

Lançado May 10, 1999 de Taiyuan Satellite Launch Center

Loading…

Próximas Passagens (próximas 24 horas)

TLE

ObsoletoSource: Space-Track

Época: Sep 11, 2022, 05:10 UTC

1 36172U 99025DSV 22254.21552431  .00001649  00000-0  12823-2 0  9990
2 36172  98.1478 252.4542 0216728 339.5641  19.6943 13.83250947735974

Acompanhe FENGYUN 1C DEB em tempo real com AllMySat

Download on the App Store